Dumas, TX

4:51 AM CDT on April 24, 2018 (GMT -0500)
Moore County

Weather History for KDUX - January, 2013

Change the Weather History Date:

Wednesday, January 2, 2013

  Actual Average (KDHT) Record (KDHT)
Temperature  
Mean Temperature 22 °F -  
Max Temperature 32 °F 46 °F 72 °F (2009)
Min Temperature 12 °F 20 °F -10 °F (1979)
Degree Days  
Heating Degree Days 43    
Moisture  
Dew Point 16 °F    
Average Humidity 79    
Maximum Humidity 93    
Minimum Humidity 64    
Precipitation  
Precipitation 0.00 in - - ()
Sea Level Pressure  
Sea Level Pressure 30.22 in    
Wind  
Wind Speed 10 mph (NW)    
Max Wind Speed 18 mph    
Max Gust Speed 24 mph    
Visibility 10 miles    
Events      
Averages and records for this station are not official NWS values.
T = Trace of Precipitation, MM = Missing Value Source: NWS Daily Summary

Daily Weather History Graph

Daily Weather History Graph

Search for Another Location

Airport or City:

Astronomy

Jan. 02, 2013 Rise Set
Actual Time 7:58 AM CST 5:46 PM CST
Civil Twilight 7:30 AM CST 6:14 PM CST
Nautical Twilight 6:58 AM CST 6:46 PM CST
Astronomical Twilight 6:27 AM CST 7:17 PM CST
Moon 11:09 PM CST (1/2) 10:51 AM CST (1/2)
Length of Visible Light 10h 44m
Length of Day
9h 47m
Waning Gibbous, 75% of the Moon is Illuminated
Jan 2
Waning Gibbous
Jan 4
Last Quarter
Jan 11
New
Jan 18
First Quarter
Jan 26
Full

Hourly Weather History & Observations

Time (CST) Temp. Windchill Dew Point Humidity Pressure Visibility Wind Dir Wind Speed Gust Speed Precip Events Conditions
12:15 AM 15.8 °F 5.1 °F 14.0 °F 93% 30.18 in 10.0 mi WSW 8.1 mph - N/A   Clear
12:35 AM 15.8 °F 4.2 °F 14.0 °F 93% 30.18 in 10.0 mi West 9.2 mph - N/A   Clear
12:55 AM 15.8 °F 6.1 °F 12.2 °F 86% 30.18 in 10.0 mi WSW 6.9 mph - N/A   Clear
1:15 AM 14.0 °F 2.9 °F 12.2 °F 93% 30.18 in 10.0 mi WSW 8.1 mph - N/A   Clear
1:35 AM 14.0 °F 2.9 °F 12.2 °F 93% 30.18 in 10.0 mi West 8.1 mph - N/A   Clear
1:55 AM 14.0 °F 3.9 °F 12.2 °F 93% 30.18 in 10.0 mi WNW 6.9 mph - N/A   Clear
2:15 AM 14.0 °F 1.2 °F 10.4 °F 86% 30.18 in 10.0 mi West 10.4 mph - N/A   Clear
2:35 AM 14.0 °F 2.0 °F 10.4 °F 86% 30.19 in 10.0 mi West 9.2 mph - N/A   Clear
2:55 AM 12.2 °F -1.0 °F 10.4 °F 92% 30.19 in 10.0 mi West 10.4 mph - N/A   Clear
3:15 AM 12.2 °F -0.2 °F 10.4 °F 92% 30.18 in 10.0 mi West 9.2 mph - N/A   Clear
3:35 AM 14.0 °F 1.2 °F 10.4 °F 86% 30.17 in 10.0 mi West 10.4 mph - N/A   Clear
3:55 AM 14.0 °F 2.0 °F 12.2 °F 93% 30.17 in 10.0 mi West 9.2 mph - N/A   Clear
4:15 AM 15.8 °F 2.7 °F 12.2 °F 86% 30.16 in 10.0 mi West 11.5 mph - N/A   Clear
4:35 AM 14.0 °F -0.8 °F 10.4 °F 86% 30.17 in 10.0 mi West 13.8 mph - N/A   Clear
4:55 AM 15.8 °F 1.4 °F 12.2 °F 86% 30.17 in 10.0 mi West 13.8 mph - N/A   Clear
5:15 AM 15.8 °F 0.9 °F 12.2 °F 86% 30.16 in 10.0 mi West 15.0 mph - N/A   Clear
5:35 AM 14.0 °F -0.2 °F 10.4 °F 86% 30.16 in 10.0 mi West 12.7 mph - N/A   Clear
6:15 AM 14.0 °F 1.2 °F 10.4 °F 86% 30.15 in 10.0 mi West 10.4 mph - N/A   Clear
6:35 AM 14.0 °F 1.2 °F 10.4 °F 86% 30.15 in 10.0 mi West 10.4 mph - N/A   Clear
6:55 AM 14.0 °F 2.0 °F 10.4 °F 86% 30.16 in 10.0 mi West 9.2 mph - N/A   Clear
7:15 AM 14.0 °F 2.0 °F 10.4 °F 86% 30.16 in 10.0 mi West 9.2 mph - N/A   Clear
7:35 AM 14.0 °F -0.2 °F 8.6 °F 79% 30.17 in 10.0 mi West 12.7 mph - N/A   Clear
7:55 AM 12.2 °F -1.8 °F 8.6 °F 85% 30.19 in 10.0 mi West 11.5 mph - N/A   Clear
8:15 AM 12.2 °F -0.2 °F 5.0 °F 73% 30.19 in 10.0 mi NW 9.2 mph - N/A   Clear
8:35 AM 12.2 °F 1.7 °F 6.8 °F 79% 30.20 in 10.0 mi WNW 6.9 mph - N/A   Clear
9:15 AM 17.6 °F 5.7 °F 8.6 °F 68% 30.21 in 10.0 mi NW 10.4 mph - N/A   Clear
9:35 AM 17.6 °F 6.4 °F 10.4 °F 73% 30.22 in 10.0 mi NW 9.2 mph - N/A   Clear
9:55 AM 21.2 °F 8.9 °F 12.2 °F 68% 30.22 in 10.0 mi NNW 12.7 mph - N/A   Clear
10:15 AM 23.0 °F 10.6 °F 14.0 °F 68% 30.24 in 10.0 mi NNW 13.8 mph - N/A   Clear
10:35 AM 23.0 °F 10.6 °F 14.0 °F 68% 30.24 in 10.0 mi NNW 13.8 mph - N/A   Clear
10:55 AM 26.6 °F 16.2 °F 15.8 °F 64% 30.25 in 10.0 mi NNW 11.5 mph - N/A   Clear
11:15 AM 28.4 °F 20.4 °F 17.6 °F 64% 30.25 in 10.0 mi NNW 8.1 mph - N/A   Clear
11:35 AM 30.2 °F 20.2 °F 19.4 °F 64% 30.25 in 10.0 mi North 12.7 mph - N/A   Clear
11:55 AM 30.2 °F 20.2 °F 21.2 °F 69% 30.24 in 10.0 mi North 12.7 mph 18.4 mph N/A   Clear
12:15 PM 32.0 °F 20.8 °F 21.2 °F 64% 30.23 in 10.0 mi North 17.3 mph 21.9 mph N/A   Clear
12:35 PM 32.0 °F 21.2 °F 21.2 °F 64% 30.22 in 10.0 mi North 16.1 mph - N/A   Clear
12:55 PM 32.0 °F 20.5 °F 21.2 °F 64% 30.20 in 10.0 mi North 18.4 mph 24.2 mph N/A   Clear
1:15 PM 32.0 °F 21.6 °F 21.2 °F 64% 30.20 in 10.0 mi North 15.0 mph - N/A   Clear
1:35 PM 32.0 °F 21.2 °F 21.2 °F 64% 30.19 in 10.0 mi North 16.1 mph 23.0 mph N/A   Clear
2:15 PM 32.0 °F 23.0 °F 21.2 °F 64% 30.19 in 10.0 mi North 11.5 mph - N/A   Clear
2:55 PM 32.0 °F 22.5 °F 23.0 °F 69% 30.20 in 10.0 mi North 12.7 mph - N/A   Clear
3:15 PM 32.0 °F 22.5 °F 23.0 °F 69% 30.20 in 10.0 mi North 12.7 mph - N/A   Clear
3:35 PM 32.0 °F 23.0 °F 23.0 °F 69% 30.20 in 10.0 mi North 11.5 mph - N/A   Clear
3:55 PM 32.0 °F 22.1 °F 21.2 °F 64% 30.21 in 10.0 mi North 13.8 mph - N/A   Clear
4:15 PM 32.0 °F 22.1 °F 21.2 °F 64% 30.22 in 10.0 mi North 13.8 mph - N/A   Clear
4:35 PM 32.0 °F 23.0 °F 21.2 °F 64% 30.21 in 10.0 mi North 11.5 mph - N/A   Clear
4:55 PM 32.0 °F 23.0 °F 21.2 °F 64% 30.22 in 10.0 mi North 11.5 mph - N/A   Clear
5:15 PM 30.2 °F 21.3 °F 21.2 °F 69% 30.22 in 10.0 mi North 10.4 mph - N/A   Clear
5:35 PM 30.2 °F 22.6 °F 23.0 °F 75% 30.22 in 10.0 mi North 8.1 mph - N/A   Clear
5:55 PM 28.4 °F 21.2 °F 21.2 °F 74% 30.22 in 10.0 mi North 6.9 mph - N/A   Clear
6:15 PM 26.6 °F 20.0 °F 21.2 °F 80% 30.24 in 10.0 mi North 5.8 mph - N/A   Clear
6:35 PM 26.6 °F 20.0 °F 21.2 °F 80% 30.24 in 10.0 mi North 5.8 mph - N/A   Clear
6:55 PM 24.8 °F 15.3 °F 21.2 °F 86% 30.24 in 10.0 mi North 9.2 mph - N/A   Clear
7:15 PM 23.0 °F 15.8 °F 19.4 °F 86% 30.25 in 10.0 mi NNW 5.8 mph - N/A   Clear
7:35 PM 23.0 °F 15.8 °F 19.4 °F 86% 30.26 in 10.0 mi NNW 5.8 mph - N/A   Clear
7:55 PM 21.2 °F 12.6 °F 17.6 °F 86% 30.26 in 10.0 mi NNW 6.9 mph - N/A   Clear
8:15 PM 23.0 °F 14.7 °F 19.4 °F 86% 30.26 in 10.0 mi NNW 6.9 mph - N/A   Clear
8:35 PM 21.2 °F 14.9 °F 17.6 °F 86% 30.26 in 10.0 mi NW 4.6 mph - N/A   Clear
8:55 PM 21.2 °F 16.4 °F 17.6 °F 86% 30.27 in 10.0 mi West 3.5 mph - N/A   Clear
9:15 PM 21.2 °F 13.6 °F 17.6 °F 86% 30.28 in 10.0 mi West 5.8 mph - N/A   Clear
9:35 PM 19.4 °F 11.5 °F 17.6 °F 93% 30.29 in 10.0 mi West 5.8 mph - N/A   Clear
10:15 PM 19.4 °F 10.4 °F 15.8 °F 86% 30.30 in 10.0 mi West 6.9 mph - N/A   Clear
10:35 PM 19.4 °F 10.4 °F 15.8 °F 86% 30.31 in 10.0 mi West 6.9 mph - N/A   Clear
10:55 PM 19.4 °F 10.4 °F 15.8 °F 86% 30.31 in 10.0 mi West 6.9 mph - N/A   Clear
11:15 PM 19.4 °F 9.5 °F 14.0 °F 80% 30.31 in 10.0 mi WNW 8.1 mph - N/A   Clear
11:35 PM 17.6 °F 7.3 °F 12.2 °F 79% 30.32 in 10.0 mi WNW 8.1 mph - N/A   Clear
11:55 PM 17.6 °F 6.4 °F 14.0 °F 86% 30.32 in 10.0 mi NW 9.2 mph - N/A   Clear